QPF
0.00 0.00 0.00 0.00 0.00 0.00 0.00 0.00 0.00 0.00 0.00 0.00 0.00 0.00 0.00 0.01 0.01 0.02 0.03 0.02 0.02 0.02 0.01 0.02 0.01 0.02 0.02 0.01 0.02 0.02 0.02 0.02 0.03 0.05 0.06 0.07 0.07 0.08 0.09 0.09 0.08 0.07 0.07 0.06
0.00 0.01 0.01 0.00 0.00 0.00 0.00 0.00 0.00 0.00 0.00 0.00 0.00 0.00 0.00 0.01 0.01 0.01 0.01 0.01 0.01 0.01 0.01 0.01 0.01 0.02 0.02 0.01 0.01 0.02 0.02 0.02 0.03 0.04 0.05 0.06 0.08 0.11 0.14 0.14 0.12 0.10 0.08 0.07
0.00 0.00 0.00 0.01 0.01 0.00 0.00 0.00 0.00 0.00 0.00 0.00 0.00 0.01 0.01 0.01 0.01 0.01 0.01 0.01 0.01 0.01 0.01 0.01 0.01 0.01 0.02 0.01 0.02 0.02 0.02 0.02 0.03 0.03 0.04 0.07 0.09 0.09 0.11 0.11 0.13 0.13 0.12 0.09
0.00 0.00 0.00 0.01 0.01 0.01 0.00 0.00 0.01 0.01 0.01 0.00 0.00 0.01 0.01 0.01 0.01 0.01 0.01 0.01 0.01 0.01 0.01 0.01 0.01 0.01 0.02 0.02 0.02 0.02 0.02 0.02 0.03 0.03 0.06 0.09 0.08 0.08 0.08 0.10 0.13 0.13 0.12 0.10
0.00 0.00 0.00 0.01 0.01 0.01 0.01 0.01 0.01 0.02 0.02 0.01 0.01 0.01 0.01 0.01 0.02 0.02 0.02 0.01 0.01 0.01 0.01 0.01 0.01 0.01 0.02 0.02 0.02 0.03 0.03 0.04 0.04 0.04 0.08 0.10 0.09 0.10 0.11 0.11 0.11 0.10 0.10 0.09
0.01 0.01 0.00 0.01 0.01 0.01 0.01 0.01 0.01 0.02 0.02 0.02 0.02 0.02 0.02 0.02 0.02 0.02 0.02 0.02 0.02 0.02 0.02 0.03 0.02 0.01 0.01 0.02 0.04 0.04 0.03 0.04 0.05 0.05 0.09 0.12 0.13 0.15 0.15 0.13 0.12 0.09 0.07 0.07
0.00 0.01 0.01 0.01 0.00 0.01 0.01 0.01 0.01 0.01 0.02 0.02 0.02 0.02 0.03 0.02 0.02 0.02 0.02 0.03 0.04 0.04 0.03 0.03 0.02 0.02 0.02 0.02 0.03 0.03 0.04 0.04 0.04 0.04 0.07 0.12 0.14 0.12 0.13 0.14 0.12 0.10 0.07 0.05
0.00 0.00 0.00 0.00 0.00 0.01 0.01 0.01 0.02 0.02 0.02 0.02 0.03 0.03 0.02 0.03 0.02 0.02 0.03 0.04 0.05 0.05 0.05 0.04 0.04 0.03 0.03 0.03 0.02 0.03 0.04 0.04 0.04 0.04 0.06 0.08 0.12 0.11 0.09 0.11 0.14 0.12 0.09 0.07
0.01 0.01 0.01 0.01 0.01 0.01 0.01 0.01 0.02 0.02 0.02 0.02 0.02 0.01 0.01 0.02 0.02 0.02 0.02 0.03 0.04 0.04 0.04 0.05 0.05 0.04 0.04 0.03 0.04 0.04 0.05 0.05 0.05 0.04 0.05 0.05 0.07 0.08 0.07 0.07 0.10 0.10 0.08 0.07
0.03 0.02 0.02 0.02 0.02 0.02 0.02 0.02 0.02 0.02 0.02 0.02 0.01 0.01 0.01 0.01 0.02 0.03 0.03 0.04 0.04 0.03 0.03 0.04 0.04 0.04 0.05 0.05 0.05 0.06 0.06 0.07 0.06 0.04 0.03 0.04 0.06 0.06 0.06 0.06 0.06 0.06 0.06 0.06
0.03 0.03 0.02 0.02 0.03 0.03 0.02 0.02 0.02 0.02 0.02 0.02 0.02 0.02 0.02 0.03 0.04 0.05 0.04 0.04 0.04 0.04 0.05 0.04 0.04 0.03 0.03 0.04 0.05 0.06 0.07 0.07 0.06 0.06 0.05 0.04 0.05 0.06 0.06 0.06 0.06 0.06 0.06 0.07
0.03 0.04 0.04 0.04 0.03 0.03 0.03 0.02 0.03 0.03 0.04 0.04 0.05 0.05 0.04 0.04 0.04 0.05 0.06 0.06 0.06 0.05 0.05 0.05 0.04 0.03 0.03 0.04 0.07 0.08 0.07 0.06 0.05 0.06 0.06 0.05 0.04 0.05 0.06 0.08 0.08 0.07 0.07 0.08
0.03 0.06 0.06 0.05 0.05 0.05 0.04 0.04 0.05 0.05 0.05 0.05 0.06 0.06 0.05 0.04 0.03 0.04 0.05 0.06 0.07 0.06 0.04 0.03 0.04 0.04 0.04 0.06 0.08 0.08 0.08 0.06 0.06 0.06 0.05 0.04 0.04 0.04 0.04 0.05 0.05 0.04 0.04 0.04
0.03 0.04 0.05 0.04 0.05 0.05 0.04 0.05 0.06 0.05 0.06 0.07 0.07 0.08 0.10 0.08 0.05 0.03 0.04 0.05 0.05 0.05 0.04 0.04 0.05 0.05 0.05 0.07 0.07 0.07 0.07 0.08 0.07 0.06 0.04 0.04 0.04 0.04 0.04 0.04 0.04 0.04 0.03 0.03
0.03 0.03 0.03 0.03 0.03 0.04 0.04 0.05 0.06 0.08 0.09 0.11 0.09 0.09 0.12 0.11 0.09 0.06 0.05 0.04 0.05 0.05 0.05 0.04 0.05 0.05 0.07 0.09 0.09 0.07 0.06 0.06 0.06 0.06 0.05 0.04 0.04 0.04 0.03 0.02 0.03 0.02 0.02 0.02
0.04 0.04 0.04 0.05 0.05 0.04 0.05 0.06 0.08 0.10 0.10 0.12 0.13 0.10 0.10 0.11 0.12 0.10 0.08 0.06 0.05 0.05 0.05 0.04 0.04 0.04 0.05 0.08 0.09 0.07 0.06 0.06 0.06 0.07 0.07 0.05 0.04 0.04 0.03 0.02 0.02 0.02 0.02 0.02
0.08 0.06 0.06 0.09 0.11 0.06 0.07 0.07 0.09 0.11 0.08 0.09 0.13 0.12 0.10 0.10 0.11 0.09 0.09 0.07 0.05 0.04 0.04 0.04 0.04 0.04 0.05 0.07 0.07 0.06 0.06 0.07 0.08 0.09 0.09 0.09 0.08 0.08 0.07 0.06 0.04 0.02 0.02 0.01
0.10 0.09 0.09 0.12 0.16 0.10 0.09 0.09 0.09 0.09 0.09 0.09 0.12 0.14 0.11 0.09 0.08 0.08 0.08 0.07 0.05 0.04 0.03 0.03 0.03 0.03 0.04 0.07 0.06 0.05 0.06 0.08 0.08 0.08 0.08 0.09 0.09 0.08 0.07 0.06 0.05 0.03 0.02 0.02
0.09 0.08 0.11 0.17 0.16 0.11 0.10 0.12 0.10 0.10 0.10 0.10 0.11 0.11 0.12 0.11 0.09 0.05 0.05 0.06 0.06 0.04 0.03 0.03 0.03 0.02 0.03 0.05 0.04 0.03 0.03 0.04 0.04 0.04 0.05 0.06 0.05 0.05 0.05 0.05 0.04 0.04 0.04 0.04
0.08 0.09 0.12 0.16 0.14 0.11 0.10 0.09 0.09 0.10 0.10 0.09 0.08 0.07 0.08 0.07 0.05 0.04 0.03 0.03 0.04 0.04 0.03 0.03 0.03 0.02 0.03 0.04 0.04 0.03 0.03 0.03 0.03 0.03 0.03 0.03 0.03 0.04 0.04 0.05 0.05 0.05 0.05 0.05
0.07 0.08 0.08 0.09 0.09 0.08 0.07 0.07 0.08 0.09 0.10 0.08 0.07 0.05 0.05 0.06 0.04 0.03 0.03 0.03 0.03 0.03 0.03 0.03 0.02 0.02 0.02 0.03 0.03 0.02 0.02 0.02 0.04 0.05 0.03 0.02 0.03 0.03 0.02 0.02 0.03 0.04 0.05 0.05
0.07 0.06 0.06 0.05 0.06 0.06 0.06 0.06 0.07 0.09 0.09 0.07 0.06 0.04 0.04 0.04 0.05 0.03 0.02 0.02 0.02 0.02 0.02 0.02 0.01 0.02 0.02 0.02 0.02 0.02 0.03 0.03 0.05 0.08 0.06 0.03 0.02 0.02 0.01 0.01 0.02 0.02 0.02 0.02
0.06 0.06 0.05 0.04 0.05 0.05 0.05 0.05 0.05 0.07 0.08 0.06 0.05 0.05 0.04 0.03 0.04 0.02 0.02 0.02 0.02 0.02 0.01 0.01 0.01 0.02 0.02 0.02 0.01 0.02 0.03 0.03 0.03 0.04 0.06 0.04 0.02 0.02 0.02 0.01 0.01 0.01 0.01 0.00
0.05 0.06 0.05 0.06 0.06 0.05 0.05 0.05 0.04 0.07 0.08 0.05 0.04 0.04 0.03 0.02 0.02 0.01 0.01 0.01 0.01 0.02 0.01 0.01 0.01 0.01 0.01 0.01 0.01 0.02 0.03 0.03 0.03 0.03 0.03 0.02 0.02 0.01 0.01 0.01 0.01 0.01 0.00 0.00
0.06 0.07 0.07 0.07 0.07 0.06 0.05 0.04 0.04 0.07 0.07 0.04 0.03 0.02 0.02 0.02 0.01 0.01 0.01 0.01 0.01 0.01 0.01 0.01 0.01 0.01 0.01 0.00 0.00 0.01 0.01 0.02 0.03 0.03 0.01 0.01 0.00 0.01 0.01 0.01 0.01 0.00 0.00 0.00
0.07 0.08 0.09 0.08 0.07 0.05 0.04 0.04 0.04 0.05 0.04 0.03 0.02 0.01 0.01 0.01 0.01 0.01 0.00 0.00 0.00 0.00 0.00 0.00 0.00 0.00 0.00 0.00 0.00 0.00 0.00 0.00 0.01 0.02 0.02 0.01 0.01 0.01 0.01 0.01 0.01 0.01 0.01 0.00
0.06 0.06 0.07 0.08 0.06 0.04 0.04 0.04 0.04 0.03 0.03 0.02 0.02 0.01 0.01 0.01 0.01 0.01 0.00 0.00 0.00 0.00 0.00 0.00 0.00 0.00 0.00 0.00 0.00 0.00 0.00 0.00 0.00 0.01 0.01 0.02 0.02 0.02 0.02 0.02 0.02 0.02 0.01 0.01
MSLP
1008.88 1009.12 1009.51 1009.98 1010.48 1010.91 1011.20 1011.27 1011.09 1010.68 1010.09 1009.40 1008.70 1008.09 1007.66 1007.44 1007.45 1007.64 1007.97 1008.34 1008.70 1008.97 1009.11 1009.12 1009.02 1008.83 1008.60 1008.39 1008.21 1008.08 1008.01 1007.99 1008.01 1008.03 1008.08 1008.13 1008.21 1008.34 1008.54 1008.82 1009.18 1009.63 1010.15 1010.70
1009.19 1009.32 1009.52 1009.77 1010.01 1010.19 1010.25 1010.15 1009.89 1009.48 1008.97 1008.44 1007.95 1007.57 1007.37 1007.34 1007.50 1007.79 1008.16 1008.55 1008.88 1009.12 1009.24 1009.23 1009.13 1008.97 1008.78 1008.60 1008.46 1008.36 1008.31 1008.28 1008.27 1008.26 1008.24 1008.23 1008.24 1008.29 1008.42 1008.63 1008.94 1009.34 1009.82 1010.35
1009.74 1009.74 1009.75 1009.77 1009.75 1009.66 1009.49 1009.21 1008.84 1008.40 1007.95 1007.53 1007.22 1007.04 1007.03 1007.17 1007.47 1007.85 1008.27 1008.67 1009.01 1009.23 1009.33 1009.33 1009.25 1009.11 1008.97 1008.84 1008.74 1008.67 1008.64 1008.61 1008.59 1008.55 1008.49 1008.43 1008.39 1008.39 1008.45 1008.61 1008.86 1009.22 1009.66 1010.16
1010.44 1010.30 1010.14 1009.93 1009.66 1009.33 1008.93 1008.47 1007.99 1007.51 1007.08 1006.76 1006.57 1006.54 1006.69 1006.99 1007.40 1007.88 1008.36 1008.79 1009.13 1009.36 1009.47 1009.48 1009.42 1009.32 1009.21 1009.12 1009.06 1009.03 1009.01 1009.00 1008.97 1008.92 1008.85 1008.77 1008.70 1008.66 1008.70 1008.81 1009.02 1009.34 1009.73 1010.20
1011.15 1010.89 1010.55 1010.15 1009.67 1009.13 1008.54 1007.93 1007.35 1006.83 1006.41 1006.15 1006.07 1006.16 1006.44 1006.86 1007.38 1007.93 1008.47 1008.95 1009.32 1009.57 1009.71 1009.74 1009.71 1009.64 1009.57 1009.51 1009.47 1009.46 1009.47 1009.47 1009.46 1009.42 1009.36 1009.28 1009.21 1009.18 1009.19 1009.29 1009.47 1009.74 1010.09 1010.51
1011.70 1011.33 1010.86 1010.32 1009.68 1009.00 1008.28 1007.57 1006.92 1006.38 1005.98 1005.77 1005.76 1005.96 1006.33 1006.85 1007.45 1008.08 1008.68 1009.21 1009.62 1009.91 1010.08 1010.15 1010.14 1010.10 1010.05 1010.02 1010.00 1010.01 1010.04 1010.07 1010.08 1010.07 1010.05 1010.01 1009.97 1009.95 1009.98 1010.07 1010.22 1010.45 1010.75 1011.11
1011.98 1011.53 1010.98 1010.35 1009.64 1008.88 1008.10 1007.36 1006.70 1006.16 1005.80 1005.64 1005.70 1005.96 1006.41 1007.00 1007.67 1008.36 1009.01 1009.59 1010.04 1010.37 1010.58 1010.68 1010.71 1010.70 1010.67 1010.65 1010.66 1010.69 1010.74 1010.80 1010.85 1010.90 1010.93 1010.95 1010.97 1010.99 1011.04 1011.14 1011.28 1011.47 1011.71 1012.01
1011.95 1011.45 1010.87 1010.22 1009.51 1008.76 1008.01 1007.30 1006.68 1006.20 1005.89 1005.78 1005.90 1006.22 1006.71 1007.34 1008.05 1008.78 1009.47 1010.08 1010.57 1010.93 1011.18 1011.32 1011.38 1011.39 1011.39 1011.39 1011.41 1011.47 1011.55 1011.66 1011.77 1011.88 1011.99 1012.08 1012.17 1012.26 1012.34 1012.45 1012.58 1012.73 1012.92 1013.15
1011.64 1011.13 1010.57 1009.96 1009.32 1008.66 1008.00 1007.39 1006.87 1006.47 1006.24 1006.20 1006.36 1006.71 1007.22 1007.86 1008.58 1009.32 1010.02 1010.64 1011.16 1011.55 1011.83 1012.00 1012.09 1012.13 1012.15 1012.18 1012.23 1012.32 1012.44 1012.60 1012.78 1012.97 1013.16 1013.34 1013.51 1013.66 1013.80 1013.93 1014.05 1014.18 1014.32 1014.48
1011.16 1010.67 1010.17 1009.67 1009.15 1008.63 1008.12 1007.66 1007.27 1006.99 1006.84 1006.86 1007.06 1007.42 1007.92 1008.55 1009.24 1009.95 1010.64 1011.25 1011.77 1012.18 1012.48 1012.67 1012.79 1012.86 1012.91 1012.96 1013.05 1013.18 1013.35 1013.57 1013.83 1014.10 1014.38 1014.66 1014.91 1015.13 1015.33 1015.48 1015.61 1015.72 1015.83 1015.94
1010.64 1010.20 1009.80 1009.43 1009.07 1008.72 1008.40 1008.10 1007.86 1007.70 1007.65 1007.72 1007.93 1008.28 1008.76 1009.33 1009.97 1010.63 1011.28 1011.86 1012.37 1012.78 1013.08 1013.29 1013.44 1013.53 1013.62 1013.71 1013.84 1014.01 1014.24 1014.53 1014.86 1015.22 1015.59 1015.95 1016.28 1016.58 1016.83 1017.02 1017.17 1017.28 1017.37 1017.45
1010.19 1009.83 1009.55 1009.33 1009.14 1008.97 1008.83 1008.70 1008.60 1008.55 1008.58 1008.68 1008.90 1009.22 1009.65 1010.16 1010.72 1011.32 1011.91 1012.45 1012.92 1013.32 1013.63 1013.85 1014.02 1014.15 1014.26 1014.40 1014.57 1014.79 1015.08 1015.43 1015.83 1016.27 1016.72 1017.16 1017.58 1017.94 1018.24 1018.49 1018.67 1018.79 1018.89 1018.96
1009.87 1009.61 1009.46 1009.38 1009.35 1009.36 1009.37 1009.39 1009.41 1009.46 1009.53 1009.67 1009.88 1010.16 1010.53 1010.97 1011.47 1011.99 1012.51 1013.00 1013.45 1013.82 1014.13 1014.36 1014.55 1014.71 1014.86 1015.04 1015.25 1015.53 1015.87 1016.28 1016.75 1017.25 1017.77 1018.28 1018.77 1019.19 1019.55 1019.84 1020.06 1020.22 1020.34 1020.43
1009.67 1009.52 1009.49 1009.55 1009.67 1009.81 1009.96 1010.09 1010.21 1010.32 1010.44 1010.59 1010.78 1011.03 1011.35 1011.73 1012.16 1012.62 1013.09 1013.54 1013.95 1014.32 1014.62 1014.87 1015.08 1015.27 1015.45 1015.67 1015.93 1016.25 1016.64 1017.10 1017.62 1018.18 1018.75 1019.32 1019.85 1020.33 1020.74 1021.08 1021.35 1021.55 1021.70 1021.83
1009.52 1009.48 1009.58 1009.76 1009.99 1010.25 1010.49 1010.71 1010.90 1011.06 1011.21 1011.37 1011.56 1011.79 1012.08 1012.42 1012.81 1013.23 1013.66 1014.09 1014.48 1014.84 1015.14 1015.41 1015.64 1015.85 1016.08 1016.33 1016.62 1016.99 1017.42 1017.92 1018.47 1019.07 1019.68 1020.29 1020.86 1021.38 1021.84 1022.22 1022.52 1022.77 1022.96 1023.12
1009.30 1009.40 1009.61 1009.91 1010.24 1010.58 1010.90 1011.18 1011.42 1011.63 1011.81 1011.99 1012.20 1012.43 1012.72 1013.05 1013.43 1013.83 1014.26 1014.67 1015.06 1015.41 1015.73 1016.01 1016.27 1016.51 1016.76 1017.04 1017.38 1017.77 1018.23 1018.76 1019.34 1019.96 1020.59 1021.22 1021.81 1022.36 1022.84 1023.24 1023.59 1023.86 1024.09 1024.29
1008.94 1009.17 1009.51 1009.91 1010.34 1010.75 1011.14 1011.48 1011.77 1012.02 1012.24 1012.46 1012.70 1012.97 1013.28 1013.64 1014.03 1014.45 1014.88 1015.30 1015.71 1016.07 1016.40 1016.70 1016.97 1017.24 1017.52 1017.83 1018.19 1018.61 1019.09 1019.64 1020.23 1020.86 1021.50 1022.13 1022.72 1023.27 1023.76 1024.18 1024.54 1024.83 1025.08 1025.30
1008.38 1008.76 1009.22 1009.73 1010.25 1010.74 1011.19 1011.59 1011.94 1012.25 1012.53 1012.81 1013.11 1013.44 1013.80 1014.21 1014.65 1015.10 1015.56 1016.00 1016.42 1016.80 1017.15 1017.46 1017.75 1018.04 1018.34 1018.67 1019.05 1019.49 1019.99 1020.54 1021.14 1021.76 1022.40 1023.01 1023.59 1024.13 1024.60 1025.02 1025.37 1025.66 1025.92 1026.13
1007.66 1008.19 1008.78 1009.40 1010.01 1010.58 1011.11 1011.58 1011.99 1012.38 1012.74 1013.10 1013.48 1013.88 1014.32 1014.79 1015.28 1015.78 1016.28 1016.75 1017.18 1017.58 1017.94 1018.26 1018.57 1018.87 1019.19 1019.54 1019.94 1020.40 1020.90 1021.46 1022.05 1022.66 1023.27 1023.86 1024.41 1024.92 1025.36 1025.74 1026.07 1026.35 1026.58 1026.79
1006.89 1007.55 1008.27 1008.99 1009.70 1010.36 1010.97 1011.51 1012.01 1012.48 1012.93 1013.38 1013.85 1014.34 1014.86 1015.40 1015.95 1016.50 1017.03 1017.52 1017.97 1018.38 1018.74 1019.07 1019.39 1019.71 1020.04 1020.41 1020.82 1021.28 1021.79 1022.34 1022.92 1023.51 1024.09 1024.65 1025.16 1025.61 1026.02 1026.36 1026.65 1026.90 1027.10 1027.28
1006.18 1006.98 1007.81 1008.64 1009.43 1010.17 1010.86 1011.49 1012.07 1012.62 1013.16 1013.71 1014.26 1014.84 1015.43 1016.03 1016.64 1017.22 1017.77 1018.28 1018.74 1019.15 1019.51 1019.85 1020.17 1020.50 1020.85 1021.23 1021.65 1022.12 1022.64 1023.18 1023.74 1024.30 1024.84 1025.35 1025.81 1026.22 1026.57 1026.87 1027.12 1027.32 1027.49 1027.65
1005.70 1006.60 1007.53 1008.43 1009.30 1010.11 1010.86 1011.57 1012.22 1012.85 1013.47 1014.09 1014.73 1015.37 1016.03 1016.67 1017.31 1017.92 1018.48 1019.00 1019.46 1019.86 1020.23 1020.57 1020.90 1021.24 1021.60 1021.99 1022.42 1022.90 1023.41 1023.94 1024.47 1025.00 1025.51 1025.97 1026.38 1026.74 1027.04 1027.29 1027.49 1027.66 1027.80 1027.93
1005.54 1006.51 1007.50 1008.46 1009.38 1010.23 1011.03 1011.78 1012.49 1013.18 1013.86 1014.55 1015.23 1015.93 1016.62 1017.30 1017.96 1018.58 1019.15 1019.66 1020.11 1020.52 1020.89 1021.23 1021.57 1021.91 1022.28 1022.69 1023.13 1023.60 1024.10 1024.61 1025.12 1025.62 1026.08 1026.49 1026.85 1027.16 1027.42 1027.63 1027.80 1027.94 1028.06 1028.17
1005.75 1006.76 1007.77 1008.75 1009.68 1010.55 1011.37 1012.15 1012.89 1013.61 1014.33 1015.05 1015.78 1016.50 1017.22 1017.91 1018.58 1019.19 1019.76 1020.27 1020.72 1021.12 1021.49 1021.84 1022.18 1022.54 1022.92 1023.33 1023.77 1024.24 1024.73 1025.22 1025.70 1026.15 1026.57 1026.94 1027.25 1027.52 1027.74 1027.92 1028.06 1028.19 1028.30 1028.41
1006.31 1007.32 1008.32 1009.28 1010.19 1011.05 1011.86 1012.63 1013.38 1014.12 1014.85 1015.59 1016.33 1017.07 1017.79 1018.49 1019.15 1019.77 1020.33 1020.83 1021.28 1021.68 1022.05 1022.41 1022.77 1023.13 1023.52 1023.94 1024.38 1024.83 1025.30 1025.76 1026.20 1026.62 1026.99 1027.31 1027.59 1027.82 1028.01 1028.17 1028.30 1028.43 1028.54 1028.65
1007.16 1008.13 1009.08 1009.99 1010.85 1011.67 1012.45 1013.21 1013.95 1014.68 1015.41 1016.16 1016.90 1017.64 1018.36 1019.05 1019.71 1020.32 1020.88 1021.38 1021.83 1022.23 1022.61 1022.98 1023.35 1023.72 1024.11 1024.53 1024.96 1025.40 1025.84 1026.27 1026.67 1027.04 1027.37 1027.65 1027.89 1028.09 1028.25 1028.40 1028.53 1028.65 1028.77 1028.89
1008.17 1009.08 1009.96 1010.80 1011.60 1012.37 1013.11 1013.83 1014.55 1015.27 1016.00 1016.73 1017.47 1018.21 1018.93 1019.62 1020.28 1020.88 1021.44 1021.94 1022.39 1022.81 1023.20 1023.58 1023.95 1024.33 1024.72 1025.12 1025.54 1025.95 1026.36 1026.75 1027.11 1027.43 1027.72 1027.96 1028.16 1028.33 1028.48 1028.61 1028.74 1028.86 1028.99 1029.11
Thickness
5682 5694 5700 5704 5705 5705 5704 5700 5698 5709 5718 5737 5747 5754 5761 5767 5772 5773 5775 5777 5780 5781 5781 5781 5781 5779 5778 5776 5774 5773 5768 5765 5763 5761 5759 5755 5752 5750 5747 5745 5742 5741 5739 5737
5678 5689 5696 5697 5702 5705 5708 5708 5710 5716 5722 5742 5748 5753 5757 5761 5766 5767 5770 5773 5774 5776 5776 5776 5776 5776 5775 5773 5771 5770 5766 5764 5762 5759 5756 5753 5750 5747 5744 5743 5741 5739 5736 5734
5660 5678 5686 5679 5695 5701 5705 5711 5714 5712 5725 5736 5740 5746 5751 5757 5761 5763 5766 5768 5770 5771 5772 5772 5773 5773 5771 5769 5768 5766 5764 5762 5760 5757 5754 5751 5748 5745 5742 5739 5737 5735 5733 5731
5648 5664 5657 5680 5702 5707 5706 5710 5717 5722 5728 5733 5739 5745 5750 5755 5758 5760 5763 5765 5768 5769 5769 5770 5770 5769 5767 5766 5764 5761 5760 5758 5757 5755 5751 5748 5745 5742 5739 5736 5734 5731 5729 5727
5636 5643 5658 5681 5696 5700 5699 5701 5715 5718 5724 5729 5736 5740 5744 5752 5756 5757 5760 5763 5766 5767 5767 5766 5765 5765 5763 5761 5759 5757 5755 5754 5753 5752 5748 5744 5741 5738 5736 5733 5730 5727 5725 5723
5633 5640 5645 5672 5695 5704 5699 5691 5712 5717 5720 5724 5729 5723 5733 5746 5750 5753 5756 5759 5761 5762 5762 5761 5761 5760 5757 5755 5753 5751 5750 5749 5749 5748 5744 5740 5737 5734 5732 5729 5726 5723 5720 5718
5629 5636 5650 5676 5690 5696 5679 5690 5710 5715 5718 5721 5722 5727 5734 5739 5742 5746 5750 5753 5755 5755 5755 5755 5755 5755 5751 5750 5748 5747 5746 5744 5743 5741 5739 5735 5732 5729 5727 5724 5720 5716 5714 5711
5623 5629 5644 5676 5682 5680 5685 5699 5706 5710 5714 5716 5719 5724 5728 5731 5735 5739 5742 5744 5747 5747 5747 5748 5748 5748 5745 5744 5744 5742 5740 5738 5736 5734 5733 5730 5726 5722 5720 5717 5714 5710 5707 5704
5631 5640 5657 5668 5674 5683 5687 5692 5699 5704 5709 5712 5714 5718 5721 5724 5727 5731 5734 5736 5738 5738 5738 5739 5740 5740 5738 5738 5738 5736 5733 5730 5728 5727 5725 5723 5719 5715 5712 5710 5708 5704 5701 5698
5631 5644 5654 5663 5670 5677 5684 5689 5695 5700 5704 5708 5709 5712 5715 5716 5719 5722 5725 5727 5729 5730 5730 5730 5731 5732 5733 5733 5733 5730 5726 5723 5720 5718 5715 5713 5711 5708 5705 5703 5701 5698 5695 5692
5628 5640 5649 5659 5665 5671 5678 5684 5689 5694 5698 5702 5704 5705 5708 5710 5712 5714 5716 5720 5722 5723 5723 5722 5722 5723 5725 5725 5725 5722 5719 5716 5713 5710 5707 5703 5700 5697 5696 5693 5693 5691 5689 5687
5625 5635 5640 5649 5658 5665 5670 5676 5681 5686 5689 5694 5698 5700 5702 5704 5705 5707 5708 5711 5713 5714 5714 5714 5715 5715 5715 5716 5717 5715 5712 5709 5707 5703 5699 5695 5691 5686 5682 5682 5681 5680 5679 5678
5626 5634 5639 5646 5653 5659 5663 5669 5675 5680 5683 5687 5690 5693 5696 5697 5698 5699 5701 5703 5705 5706 5706 5706 5706 5707 5706 5707 5708 5708 5705 5702 5699 5695 5692 5688 5686 5681 5676 5671 5669 5668 5667 5666
5626 5631 5635 5642 5646 5653 5658 5663 5668 5672 5675 5679 5682 5685 5687 5688 5689 5691 5693 5695 5696 5697 5698 5698 5698 5697 5698 5699 5700 5699 5696 5694 5691 5687 5683 5680 5677 5674 5670 5667 5663 5657 5653 5652
5623 5628 5632 5637 5641 5646 5651 5656 5660 5663 5666 5669 5674 5676 5678 5678 5679 5681 5683 5685 5687 5687 5688 5689 5689 5688 5689 5691 5690 5688 5687 5684 5682 5678 5674 5671 5668 5664 5660 5657 5653 5648 5644 5640
5618 5623 5627 5631 5635 5639 5644 5648 5652 5655 5657 5660 5663 5665 5668 5669 5669 5670 5673 5676 5677 5677 5678 5678 5678 5678 5680 5681 5680 5677 5675 5673 5671 5668 5664 5661 5657 5654 5650 5646 5642 5638 5634 5630
5614 5618 5622 5625 5629 5633 5637 5641 5645 5648 5650 5651 5653 5656 5657 5658 5658 5660 5662 5664 5666 5666 5667 5667 5667 5668 5669 5670 5669 5666 5664 5661 5660 5657 5653 5649 5646 5643 5639 5635 5630 5626 5621 5617
5612 5616 5619 5623 5626 5629 5632 5635 5638 5640 5641 5642 5643 5645 5646 5647 5648 5650 5651 5653 5655 5655 5655 5656 5658 5659 5658 5658 5657 5656 5653 5651 5648 5645 5641 5638 5634 5631 5627 5622 5618 5613 5608 5605
5607 5611 5614 5617 5621 5624 5625 5627 5630 5632 5633 5634 5635 5636 5637 5637 5638 5640 5642 5643 5643 5643 5642 5645 5647 5648 5647 5646 5646 5644 5642 5639 5635 5632 5629 5625 5622 5618 5615 5610 5606 5602 5598 5593
5601 5604 5607 5609 5613 5615 5617 5620 5622 5623 5624 5626 5627 5627 5627 5628 5629 5630 5632 5631 5630 5631 5633 5635 5635 5636 5636 5636 5636 5634 5631 5629 5625 5621 5617 5613 5610 5606 5602 5598 5594 5590 5586 5581
5594 5598 5600 5602 5604 5607 5610 5612 5614 5615 5616 5618 5619 5619 5619 5619 5620 5622 5623 5621 5620 5623 5624 5625 5625 5625 5625 5625 5624 5623 5620 5617 5614 5610 5606 5602 5598 5594 5590 5586 5582 5578 5574 5569
5588 5591 5594 5596 5597 5599 5601 5604 5607 5608 5609 5609 5610 5611 5611 5611 5612 5612 5612 5612 5612 5614 5615 5615 5615 5615 5616 5615 5614 5612 5609 5606 5603 5599 5595 5591 5588 5584 5579 5575 5571 5566 5562 5557
5582 5585 5587 5589 5590 5592 5593 5595 5598 5599 5601 5602 5602 5603 5603 5603 5604 5605 5603 5603 5604 5605 5605 5605 5605 5605 5605 5605 5603 5600 5598 5595 5591 5587 5583 5580 5576 5573 5569 5564 5559 5555 5551 5546
5575 5577 5579 5581 5583 5584 5585 5586 5588 5590 5592 5593 5594 5594 5595 5596 5594 5594 5595 5595 5596 5597 5596 5594 5595 5595 5595 5594 5592 5589 5586 5583 5580 5576 5573 5569 5565 5562 5558 5553 5549 5544 5540 5536
5569 5571 5573 5575 5575 5576 5576 5578 5580 5581 5583 5583 5584 5585 5587 5589 5588 5587 5587 5587 5587 5588 5586 5585 5585 5585 5584 5582 5580 5578 5575 5572 5569 5566 5562 5559 5555 5551 5547 5543 5538 5534 5530 5525
5564 5565 5566 5568 5569 5570 5571 5573 5573 5574 5576 5576 5575 5577 5578 5579 5580 5580 5579 5579 5579 5578 5577 5576 5575 5574 5573 5571 5569 5567 5564 5561 5558 5556 5552 5548 5544 5540 5536 5532 5528 5524 5519 5515
5559 5560 5561 5561 5562 5563 5565 5566 5566 5567 5568 5569 5569 5569 5570 5571 5571 5571 5571 5570 5569 5568 5567 5566 5565 5564 5562 5560 5558 5556 5554 5551 5548 5545 5541 5538 5534 5530 5526 5522 5518 5514 5509 5505